This is the latest recevied weather packets stored in our database for station/object N4TLC. If no packets are shown the sender has not sent any weather packets the latest 10 day(s).
| Time | Temp. | Humidity | Pressure | Rain* | Wind** | Luminosity | Snow |
|---|---|---|---|---|---|---|---|
| 1777924462 | 26.11° C | 30% | 1015.8 hPa | 0 mm | - | 802 W/m² | - |
| 1777924158 | 26.11° C | 31% | 1016 hPa | 0 mm | - | 821 W/m² | - |
| 1777923854 | 26.11° C | 31% | 1016 hPa | 0 mm | - | 834 W/m² | - |
| 1777923551 | 25.56° C | 31% | 1016 hPa | 0 mm | - | 847 W/m² | - |
| 1777923248 | 25.56° C | 33% | 1016.2 hPa | 0 mm | - | 863 W/m² | - |
| 1777922947 | 25.56° C | 32% | 1016.1 hPa | 0 mm | - | 876 W/m² | - |
| 1777922644 | 25.56° C | 32% | 1016.3 hPa | 0 mm | - | 886 W/m² | - |
| 1777922342 | 25.56° C | 32% | 1016.2 hPa | 0 mm | - | 902 W/m² | - |
| 1777922040 | 25.56° C | 32% | 1016.5 hPa | 0 mm | - | 913 W/m² | - |
| 1777921735 | 25.56° C | 33% | 1016.3 hPa | 0 mm | - | 926 W/m² | - |
| 1777921431 | 25° C | 33% | 1016.5 hPa | 0 mm | - | 931 W/m² | - |
| 1777921128 | 25° C | 32% | 1016.7 hPa | 0 mm | - | 938 W/m² | - |
| 1777920825 | 25° C | 33% | 1016.7 hPa | 0 mm | - | 955 W/m² | - |
| 1777920521 | 24.44° C | 34% | 1016.7 hPa | 0 mm | - | 965 W/m² | - |
| 1777920217 | 24.44° C | 34% | 1016.7 hPa | 0 mm | - | 974 W/m² | - |
| 1777919913 | 25° C | 33% | 1016.7 hPa | 0 mm | - | 980 W/m² | - |
| 1777919611 | 25° C | 34% | 1016.7 hPa | 0 mm | - | 982 W/m² | - |
| 1777919308 | 24.44° C | 35% | 1016.7 hPa | 0 mm | - | 994 W/m² | - |
| 1777919005 | 24.44° C | 35% | 1016.7 hPa | 0 mm | - | 994 W/m² | - |
| 1777918702 | 24.44° C | 34% | 1016.8 hPa | 0 mm | - | 1002 W/m² | - |
| 1777918400 | 24.44° C | 33% | 1016.9 hPa | 0 mm | - | 996 W/m² | - |
| 1777918099 | 23.89° C | 34% | 1016.9 hPa | 0 mm | - | 1010 W/m² | - |
| 1777917796 | 23.89° C | 34% | 1016.9 hPa | 0 mm | - | 1007 W/m² | - |
| 1777917494 | 23.89° C | 35% | 1017.1 hPa | 0 mm | - | 1019 W/m² | - |
| 1777917191 | 22.78° C | 35% | 1016.9 hPa | 0 mm | - | 1021 W/m² | - |
* Rain latest hour (hover to see other rain measurements)
** Current wind speed in m/s (hover to see current wind gust speed)